Madeline — WDF2406 — position and weather

sailwx.info

Track history (hours):
 
Tides and Currents Weather Stations Pressure Air Temp Water Temp Dewpoint Dewpoint Depression Visibility Wind Speed Wind Dir Waves Ship Positions

Madeline

Owner: Enterprise Marine Services, LLC, San Antonio, TX. More information available from US FCC via Universal Licensing System and Coast Guard Vessel Documentation Center.

Last reported at 2014-Nov-23 14:33 UTC. Time now 2014-Nov-23 14:39 UTC.
Position N 29°45' W 095°06'.

Length 30 m; draft 8 m.

Type: Tug. MMSI: 367350460.

Date/timePositionNaut miles runAvg speedWind from/ knotsBaromVisibWave heightAir tempDewpointWater temp
2014-Nov-23 14:33N 29°45' W 095°06'0 0.0
2014-Nov-23 13:33N 29°45' W 095°06'0 0.0
2014-Nov-23 12:33N 29°45' W 095°06'0 0.0
2014-Nov-23 11:33N 29°45' W 095°06'0 0.0
2014-Nov-23 10:33N 29°45' W 095°06'0 0.0
2014-Nov-23 08:31N 29°45' W 095°06'0 0.0
2014-Nov-23 07:33N 29°45' W 095°06'0 0.0
2014-Nov-23 06:33N 29°45' W 095°06'0 0.0
2014-Nov-23 05:33N 29°45' W 095°06'0 0.0
2014-Nov-23 04:33N 29°45' W 095°06'0 0.0
2014-Nov-23 03:33N 29°45' W 095°06'0 0.0
2014-Nov-23 02:33N 29°45' W 095°06'2 0.6
2014-Nov-22 22:18N 29°47' W 095°05'0 0.0
2014-Nov-22 21:33N 29°47' W 095°05'0 0.0
2014-Nov-22 20:33N 29°47' W 095°05'0 0.0
2014-Nov-22 19:06N 29°47' W 095°05'0 0.0
2014-Nov-22 14:19N 29°47' W 095°05'3 0.2
2014-Nov-22 01:24N 29°44' W 095°04'3 0.5
2014-Nov-21 19:27N 29°47' W 095°05'0 0.0
2014-Nov-21 18:33N 29°47' W 095°05'0 0.0
2014-Nov-21 17:33N 29°47' W 095°05'0 0.0
2014-Nov-21 16:32N 29°47' W 095°05'0 0.0
2014-Nov-21 15:27N 29°47' W 095°05'0 0.0
2014-Nov-21 14:33N 29°47' W 095°05'0 0.0
2014-Nov-21 13:26N 29°47' W 095°05'0 0.0
2014-Nov-20 20:10N 29°47' W 095°05'0 0.0
2014-Nov-20 17:14N 29°47' W 095°05'0 0.0
2014-Nov-20 15:30N 29°47' W 095°05'0 0.0
2014-Nov-20 14:28N 29°47' W 095°05'0 0.0
2014-Nov-20 13:33N 29°47' W 095°05'1 0.2
2014-Nov-20 10:03N 29°47' W 095°04'2 3.3
2014-Nov-20 09:28N 29°45' W 095°06'2 0.2
2014-Nov-19 23:16N 29°47' W 095°05'1 0.9
2014-Nov-19 22:33N 29°47' W 095°05'4 3.5
2014-Nov-19 21:32N 29°44' W 095°07'5 4.2
2014-Nov-19 20:24N 29°44' W 095°13'2 0.7
2014-Nov-19 17:33N 29°43' W 095°15'0 0.1
2014-Nov-19 15:13N 29°43' W 095°15'0 0.0
2014-Nov-19 14:29N 29°43' W 095°15'0 0.0
2014-Nov-19 13:32N 29°43' W 095°15'0 0.1
2014-Nov-19 12:11N 29°43' W 095°15'0 0.0
2014-Nov-19 03:05N 29°43' W 095°15'0 0.0
2014-Nov-19 02:19N 29°43' W 095°15'0 0.0
2014-Nov-18 23:26N 29°43' W 095°15'0 0.0
2014-Nov-18 22:23N 29°43' W 095°15'0 0.0
2014-Nov-18 20:25N 29°43' W 095°15'3 2.8
2014-Nov-18 19:23N 29°44' W 095°12'6 6.4
2014-Nov-18 18:25N 29°46' W 095°05'1 0.3
2014-Nov-18 14:08N 29°47' W 095°05'0 0.2
2014-Nov-18 13:31N 29°47' W 095°05'0 0.0
2014-Nov-18 06:28N 29°47' W 095°05'0 0.0
2014-Nov-17 23:32N 29°47' W 095°05'0 0.0
2014-Nov-17 22:16N 29°47' W 095°05'0 0.0
2014-Nov-17 21:31N 29°47' W 095°05'0 0.0
2014-Nov-17 20:33N 29°47' W 095°05'0 0.0
2014-Nov-17 19:33N 29°47' W 095°05'0 0.0
2014-Nov-17 17:28N 29°47' W 095°05'0 0.0
2014-Nov-17 16:23N 29°47' W 095°05'0 0.0
2014-Nov-17 15:33N 29°47' W 095°05'0 0.0
2014-Nov-17 14:25N 29°47' W 095°05'0 0.0
2014-Nov-17 13:17N 29°47' W 095°05'5 0.2
2014-Nov-16 10:33N 29°43' W 095°01'8 8.1
2014-Nov-16 09:33N 29°36' W 094°57'10 0.3
2014-Nov-14 23:10N 29°27' W 094°51'5 7.8
2014-Nov-14 22:33N 29°31' W 094°53'8 7.9
2014-Nov-14 21:33N 29°38' W 094°58'7 7.1
2014-Nov-14 20:33N 29°44' W 095°02'4 2.1
2014-Nov-14 18:33N 29°47' W 095°05'0 0.0
2014-Nov-14 17:33N 29°47' W 095°05'0 0.0
2014-Nov-14 16:33N 29°47' W 095°05'0 0.0
2014-Nov-14 15:33N 29°47' W 095°05'0 0.0
2014-Nov-14 14:21N 29°47' W 095°05'0 0.0
2014-Nov-14 00:33N 29°47' W 095°05'0 0.0
2014-Nov-13 22:14N 29°47' W 095°05'0 0.0
2014-Nov-13 20:14N 29°47' W 095°05'0 0.0
2014-Nov-13 17:08N 29°47' W 095°05'0 0.0
2014-Nov-13 16:15N 29°47' W 095°05'0 0.0
2014-Nov-13 15:30N 29°47' W 095°05'  
Track history (hours):
 
Tides and Currents Weather Stations Pressure Air Temp Water Temp Dewpoint Dewpoint Depression Visibility Wind Speed Wind Dir Waves Ship Positions

Madeline

Owner: Enterprise Marine Services, LLC, San Antonio, TX. More information available from US FCC via Universal Licensing System and Coast Guard Vessel Documentation Center.

Last reported at 2014-Nov-23 14:33 UTC. Time now 2014-Nov-23 14:39 UTC.
Position N 29°45' W 095°06'.

Length 30 m; draft 8 m.

Type: Tug. MMSI: 367350460.

Date/timePositionNaut miles runAvg speedWind from/ knotsBaromVisibWave heightAir tempDewpointWater temp
2014-Nov-23 14:33N 29°45' W 095°06'0 0.0
2014-Nov-23 13:33N 29°45' W 095°06'0 0.0
2014-Nov-23 12:33N 29°45' W 095°06'0 0.0
2014-Nov-23 11:33N 29°45' W 095°06'0 0.0
2014-Nov-23 10:33N 29°45' W 095°06'0 0.0
2014-Nov-23 08:31N 29°45' W 095°06'0 0.0
2014-Nov-23 07:33N 29°45' W 095°06'0 0.0
2014-Nov-23 06:33N 29°45' W 095°06'0 0.0
2014-Nov-23 05:33N 29°45' W 095°06'0 0.0
2014-Nov-23 04:33N 29°45' W 095°06'0 0.0
2014-Nov-23 03:33N 29°45' W 095°06'0 0.0
2014-Nov-23 02:33N 29°45' W 095°06'2 0.6
2014-Nov-22 22:18N 29°47' W 095°05'0 0.0
2014-Nov-22 21:33N 29°47' W 095°05'0 0.0
2014-Nov-22 20:33N 29°47' W 095°05'0 0.0
2014-Nov-22 19:06N 29°47' W 095°05'0 0.0
2014-Nov-22 14:19N 29°47' W 095°05'3 0.2
2014-Nov-22 01:24N 29°44' W 095°04'3 0.5
2014-Nov-21 19:27N 29°47' W 095°05'0 0.0
2014-Nov-21 18:33N 29°47' W 095°05'0 0.0
2014-Nov-21 17:33N 29°47' W 095°05'0 0.0
2014-Nov-21 16:32N 29°47' W 095°05'0 0.0
2014-Nov-21 15:27N 29°47' W 095°05'0 0.0
2014-Nov-21 14:33N 29°47' W 095°05'0 0.0
2014-Nov-21 13:26N 29°47' W 095°05'0 0.0
2014-Nov-20 20:10N 29°47' W 095°05'0 0.0
2014-Nov-20 17:14N 29°47' W 095°05'0 0.0
2014-Nov-20 15:30N 29°47' W 095°05'0 0.0
2014-Nov-20 14:28N 29°47' W 095°05'0 0.0
2014-Nov-20 13:33N 29°47' W 095°05'1 0.2
2014-Nov-20 10:03N 29°47' W 095°04'2 3.3
2014-Nov-20 09:28N 29°45' W 095°06'2 0.2
2014-Nov-19 23:16N 29°47' W 095°05'1 0.9
2014-Nov-19 22:33N 29°47' W 095°05'4 3.5
2014-Nov-19 21:32N 29°44' W 095°07'5 4.2
2014-Nov-19 20:24N 29°44' W 095°13'2 0.7
2014-Nov-19 17:33N 29°43' W 095°15'0 0.1
2014-Nov-19 15:13N 29°43' W 095°15'0 0.0
2014-Nov-19 14:29N 29°43' W 095°15'0 0.0
2014-Nov-19 13:32N 29°43' W 095°15'0 0.1
2014-Nov-19 12:11N 29°43' W 095°15'0 0.0
2014-Nov-19 03:05N 29°43' W 095°15'0 0.0
2014-Nov-19 02:19N 29°43' W 095°15'0 0.0
2014-Nov-18 23:26N 29°43' W 095°15'0 0.0
2014-Nov-18 22:23N 29°43' W 095°15'0 0.0
2014-Nov-18 20:25N 29°43' W 095°15'3 2.8
2014-Nov-18 19:23N 29°44' W 095°12'6 6.4
2014-Nov-18 18:25N 29°46' W 095°05'1 0.3
2014-Nov-18 14:08N 29°47' W 095°05'0 0.2
2014-Nov-18 13:31N 29°47' W 095°05'0 0.0
2014-Nov-18 06:28N 29°47' W 095°05'0 0.0
2014-Nov-17 23:32N 29°47' W 095°05'0 0.0
2014-Nov-17 22:16N 29°47' W 095°05'0 0.0
2014-Nov-17 21:31N 29°47' W 095°05'0 0.0
2014-Nov-17 20:33N 29°47' W 095°05'0 0.0
2014-Nov-17 19:33N 29°47' W 095°05'0 0.0
2014-Nov-17 17:28N 29°47' W 095°05'0 0.0
2014-Nov-17 16:23N 29°47' W 095°05'0 0.0
2014-Nov-17 15:33N 29°47' W 095°05'0 0.0
2014-Nov-17 14:25N 29°47' W 095°05'0 0.0
2014-Nov-17 13:17N 29°47' W 095°05'5 0.2
2014-Nov-16 10:33N 29°43' W 095°01'8 8.1
2014-Nov-16 09:33N 29°36' W 094°57'10 0.3
2014-Nov-14 23:10N 29°27' W 094°51'5 7.8
2014-Nov-14 22:33N 29°31' W 094°53'8 7.9
2014-Nov-14 21:33N 29°38' W 094°58'7 7.1
2014-Nov-14 20:33N 29°44' W 095°02'4 2.1
2014-Nov-14 18:33N 29°47' W 095°05'0 0.0
2014-Nov-14 17:33N 29°47' W 095°05'0 0.0
2014-Nov-14 16:33N 29°47' W 095°05'0 0.0
2014-Nov-14 15:33N 29°47' W 095°05'0 0.0
2014-Nov-14 14:21N 29°47' W 095°05'0 0.0
2014-Nov-14 00:33N 29°47' W 095°05'0 0.0
2014-Nov-13 22:14N 29°47' W 095°05'0 0.0
2014-Nov-13 20:14N 29°47' W 095°05'0 0.0
2014-Nov-13 17:08N 29°47' W 095°05'0 0.0
2014-Nov-13 16:15N 29°47' W 095°05'0 0.0
2014-Nov-13 15:30N 29°47' W 095°05'  

Dump ship's entire track history